Location: アルンシュタイン
(50.0000°N, 10.0000°E)
Time: 18:03:15
(UTC+02:00)

Explorer 7 - All Passes

Search period start: 11 September 2024 00:00
Search period end: 21 September 2024 00:00
Orbit: 462 x 610 km, 50.3° (Epoch: 10 September)

Date Brightness Start Highest point End Pass type
(mag) Time Alt. Az. Time Alt. Az. Time Alt. Az.
11 Sep - 04:36:33 10° S 04:38:59 17° SE 04:41:24 10° E visible
11 Sep - 06:14:20 10° WSW 06:17:56 58° SSE 06:21:31 10° E visible
11 Sep - 07:53:43 10° W 07:57:21 84° N 08:01:01 10° E daylight
11 Sep - 09:33:12 10° W 09:36:48 61° SSW 09:40:27 10° ESE daylight
11 Sep - 11:13:11 10° W 11:15:47 18° SW 11:18:25 10° S daylight
12 Sep - 04:26:06 10° SSW 04:28:53 20° SE 04:31:38 10° E visible
12 Sep - 06:04:17 10° WSW 06:07:55 66° SSE 06:11:31 10° E visible
12 Sep - 07:43:43 10° W 07:47:22 84° N 07:51:01 10° E daylight
12 Sep - 09:23:12 10° W 09:26:46 54° SSW 09:30:22 10° SE daylight
12 Sep - 11:03:28 10° WSW 11:05:39 15° SW 11:07:53 10° S daylight
13 Sep - 04:15:43 10° SSW 04:18:45 24° SE 04:21:45 10° E visible
13 Sep - 05:54:11 10° WSW 05:57:51 73° SSE 06:01:29 10° E visible
13 Sep - 07:33:41 10° W 07:37:19 86° N 07:40:59 10° E daylight
13 Sep - 09:13:10 10° W 09:16:40 46° SSW 09:20:13 10° SE daylight
13 Sep - 10:53:53 10° WSW 10:55:29 12° SW 10:57:05 10° SSW daylight
14 Sep - 04:05:21 10° SSW 04:08:35 28° SSE 04:11:46 10° E visible
14 Sep - 05:44:05 10° WSW 05:47:45 80° SSE 05:51:24 10° E visible
14 Sep - 07:23:35 10° W 07:27:14 89° N 07:30:53 10° E daylight
14 Sep - 09:03:07 10° W 09:06:32 40° SSW 09:09:59 10° SE daylight
15 Sep - 03:54:59 10° SW 03:58:23 33° SSE 04:01:43 10° E visible
15 Sep - 05:33:56 10° WSW 05:37:37 86° S 05:41:16 10° E visible
15 Sep - 07:13:27 10° W 07:17:06 87° S 07:20:45 10° ESE daylight
15 Sep - 08:53:01 10° W 08:56:20 34° SSW 08:59:40 10° SE daylight
16 Sep - 03:44:38 10° SW 03:48:09 39° SSE 03:51:36 10° E visible
16 Sep - 05:23:45 10° W 05:27:27 90° N 05:31:05 10° E visible
16 Sep - 07:03:16 10° W 07:06:56 81° S 07:10:33 10° ESE daylight
16 Sep - 08:42:54 10° W 08:46:05 29° SSW 08:49:17 10° SSE daylight
17 Sep - 01:57:27 10° SSE 01:59:05 12° SE 02:00:41 10° ESE night (unlit)
17 Sep - 03:34:16 10° SW 03:37:53 45° SSE 03:41:25 10° E visible
17 Sep - 05:13:31 10° W 05:17:14 86° N 05:20:52 10° E visible
17 Sep - 06:53:03 10° W 06:56:42 75° SSW 07:00:19 10° ESE daylight
17 Sep - 08:32:47 10° W 08:35:47 25° SW 08:38:48 10° SSE daylight
18 Sep - 01:46:26 10° S 01:48:42 15° SE 01:50:55 10° ESE night (unlit)
18 Sep - 03:23:54 10° SW 03:27:35 52° SSE 03:31:11 10° E visible
18 Sep - 05:03:15 10° W 05:06:58 84° N 05:10:37 10° E visible
18 Sep - 06:42:46 10° W 06:46:25 68° SSW 06:50:01 10° ESE daylight
18 Sep - 08:22:38 10° W 08:25:25 21° SW 08:28:12 10° SSE daylight
19 Sep - 01:35:35 10° S 01:38:17 18° SE 01:40:55 10° E night (unlit)
19 Sep - 03:13:30 10° WSW 03:17:15 60° SSE 03:20:53 10° E visible
19 Sep - 04:52:56 10° W 04:56:40 84° N 05:00:19 10° E visible
19 Sep - 06:32:28 10° W 06:36:05 60° SSW 06:39:39 10° ESE daylight
19 Sep - 08:12:32 10° W 08:15:00 17° SW 08:17:28 10° S daylight
20 Sep - 01:24:49 10° SSW 01:27:50 22° SE 01:30:46 10° E night (unlit)
20 Sep - 03:03:05 10° WSW 03:06:53 67° SSE 03:10:33 10° E visible
20 Sep - 04:42:36 10° W 04:46:20 84° N 04:49:58 10° E visible
20 Sep - 06:22:07 10° W 06:25:42 53° SSW 06:29:13 10° SE visible
20 Sep - 08:02:29 10° WSW 08:04:32 14° SW 08:06:35 10° S daylight
